Regional Weather Roundup
Issued by NWS Charleston, SC

Current Version | Previous Version | Text Only | Print | Product List | Glossary Off
Versions: 1 2 3 4 5 6 7 8 9 10 11 12 13 14 15 16 17 18 19 20 21 22 23 24 25 26 27 28 29 30 31 32 33 34 35 36 37 38 39 40 41 42 43 44 45 46 47 48 49 50
000 ASUS42 KCHS 011526 RWRCHS REGIONAL WEATHER ROUNDUP NATIONAL WEATHER SERVICE CHARLESTON SC 1000 AM EST SUN MAR 01 2015 NOTE: "FAIR" INDICATES FEW OR NO CLOUDS BELOW 12,000 FEET WITH NO SIGNIFICANT WEATHER AND/OR OBSTRUCTIONS TO VISIBILITY. NOT ALL STATIONS ARE QUALITY CONTROLLED BY THE NATIONAL WEATHER SERVICE. USE DATA WITH CAUTION...ESPECIALLY DEWPOINT OBSERVATIONS. SCZ027-030-031-034>040-042>050-011600- ...SOUTHEAST SOUTH CAROLINA... CITY SKY/WX TMP DP RH WIND PRES REMARKS N CHARLESTON DRIZZLE 41 39 93 N8 30.50F WATERFRONT PRK N/A 41 N/A N/A N9 N/A MOUNT PLEASANT RAIN 43 41 93 NW7 30.50S PINOPOLIS NOT AVBL MONCKS CORNER DRIZZLE 39 37 93 N5 30.52R WCI 36 SUMMERVILLE CLOUDY 39 39 100 N6 30.53S WCI 35 BEAUFORT MCAS LGT RAIN 42 40 92 N8 30.51S FOG BEAUFORT ARPT CLOUDY 41 41 100 NW6 30.50R HILTON HEAD IS NOT AVBL WALTERBORO DRIZZLE 39 39 100 N5 30.53S WCI 36 ALLENDALE PTSUNNY 37 37 100 N5 30.52F WCI 34 ...SOUTHERN MIDLANDS AND PEE DEE... CITY SKY/WX TMP DP RH WIND PRES REMARKS GEORGETOWN NOT AVBL KINGSTREE NOT AVBL ORANGEBURG LGT RAIN 36 32 85 N9 30.54S FOG WCI 29 BARNWELL MIX PCPN 37 37 100 N6 30.54S WCI 33 AIKEN CLOUDY 36 36 100 NE7 30.55F WCI 30 MANNING CLOUDY N/A N/A N/A N7 30.54R COLUMBIA LGT RAIN 36 35 96 N6 30.55S FOG WCI 31 SUMTER LGT RAIN 36 32 87 N7 30.53F WCI 30 FLORENCE CLOUDY 35 32 88 NW6 30.55R FOG WCI 30 MYRTLE BEACH CLOUDY 46 37 71 N9 30.52F N MYRTLE BEACH PTSUNNY 49 38 65 NE7 30.49F $$ GAZ063-065-086>088-099>101-113>116-118-119-134>141-150-011600- ...SOUTHEAST GEORGIA... CITY SKY/WX TMP DP RH WIND PRES REMARKS SAVANNAH ARPT CLOUDY 43 40 89 N8 30.51R FOG HUNTER AAF RAIN 43 43 100 VRB3 30.47R FOG FORT STEWART CLOUDY 43 41 93 N6 30.48S STATESBORO CLOUDY 39 39 100 N6 30.52S FOG WCI 35 SYLVANIA CLOUDY 39 38 99 NE6 30.53R WCI 34 CLAXTON DRIZZLE 41 41 100 NE7 30.51S ...CSRA...CENTRAL AND FAR SOUTHEAST GEORGIA... CITY SKY/WX TMP DP RH WIND PRES REMARKS THOMSON CLOUDY 38 38 100 NE3 30.57F AUGUSTA-BUSH CLOUDY 37 34 89 NE8 30.55S WCI 31 AUGUSTA-DANIEL CLOUDY 38 35 89 N6 30.54S WCI 33 SWAINSBORO CLOUDY 41 41 100 N7 30.52S FOG VIDALIA CLOUDY 41 41 100 NE7 30.51S FOG EASTMAN CLOUDY 42 42 100 NE7 30.53S FOG HAZLEHURST CLOUDY 44 44 100 NE6 30.48F FOG ALMA CLOUDY 44 42 93 N6 30.48F FOG WAYCROSS CLOUDY 49 48 97 NE6 30.47F FOG JESUP CLOUDY 46 45 93 NE6 30.48S FOG BAXLEY CLOUDY 45 43 93 NE6 30.48F FOG BRUNSWICK CLOUDY 48 45 87 N3 30.48S SAINT SIMONS CLOUDY 48 46 93 N8 30.47R FOG $$ SCZ027-028-034-036>038-045-046-048>050-GAZ119-141-011600- ...LAKE AND SUPPLEMENTAL COASTAL OBSERVATIONS... STATION/POSITION TIME TEMP WIND PRES WAVE SWELL AIR SEA DIR/SP/G HT/PER HT/PER/DIR (UTC) (F) (DEG/KT/KT) (MB) (FT/S) (FT/S/D) UPR LAKE MARION NOT AVBL WINYAH BAY 1445 43 50/ 9 1031.0S LAKE MURRAY 1400 33 330/ 2/ 6 1034.2R ACE BASIN NERRS NOT AVBL FORT PULASKI 1500 43 48 350/ 9/ 11 1032.8R SAPELO ISLAND 1500 45 10/ 11 1032.0R $$ ANZ835-935-AMZ111-154-330-350-352-354-370-450-454-472-011600- ...C-MAN AND BUOY OBSERVATIONS... STATION/POSITION TIME TEMP WIND PRES WAVE SWELL AIR SEA DIR/SP/G HT/PER HT/PER/DIR (UTC) (F) (DEG/KT/KT) (MB) (FT/S) (FT/S/D) BUOY 41004 1450 69 67 130/ 17/ 19 1030.3R 9/ 8 5/ 8 BUOY 41008 1450 49 52 20/ 17/ 19 1031.1S 6/ 7 3/100/10 FOLLY BEACH CMAN 1500 43 350/ 9/ 12 1032.7F CAPERS NEARSHORE NOT AVBL FRIPP NEARSHORE 1400 43 360/ 12/ 14 1031.1R STATION/POSITION TIME TEMP WIND PRES WAVE SWELL AIR SEA DIR/SP/G HT/PER HT/PER/DIR (UTC) (F) (DEG/KT/KT) (MB) (FT/S) (FT/S/D) 5E ST. MARYS GA 1421 52 N/A 6/ 7 2/110/11 FRYING PAN BUOY 1450 64 60 130/ 14/ 16 1032.2F 7/ 6 3/ 90/ 8 BUOY 41025 NOT AVBL CAPE LOOKOUT NC 1500 47 30/ 7/ 9 1033.6F BUOY 41002 1450 68 72 100/ 16/ 21 1033.4R 9/ 9 7/ 80/ 9 BUOY 41010 1420 70 74 90/ 19/ 23 1029.3R ST AUGUSTINE FL 1500 52 360/ 15/ 16 1030.7F $$

USA.gov is the U.S. government's official web portal to all federal, state and local government web resources and services.